Theta_e
310 303 300 303 305 305 305 303 300 303 307 308 311 324 328 331 326 330 333 333 332 333 336 339 338 339 340 343 342 343 345 346 351 347 346 346 345 348 345 352 353 357 358 355
306 302 308 311 309 306 303 301 301 304 307 305 318 321 324 326 323 329 326 326 331 334 335 340 338 337 339 340 344 343 347 347 349 347 347 346 345 349 349 353 358 357 357 356
300 306 312 309 306 303 302 299 300 300 305 304 315 315 314 321 324 325 331 331 330 333 334 337 337 336 338 338 342 346 348 347 349 346 347 348 349 346 350 348 353 353 358 357
304 309 307 305 305 305 295 305 305 303 299 293 302 299 313 317 320 324 328 330 331 332 336 337 336 336 335 340 343 348 349 348 347 349 343 343 344 342 347 351 351 354 355 356
300 304 304 304 305 306 301 307 304 302 298 293 298 292 310 317 317 321 325 322 329 332 336 336 336 338 337 342 341 347 350 348 347 349 344 344 343 344 347 344 348 351 354 357
302 308 306 304 308 307 308 303 301 299 295 288 294 293 303 313 316 318 328 328 332 335 337 337 338 339 339 342 342 343 349 346 345 346 349 344 342 344 348 346 348 351 354 356
298 300 305 307 301 305 303 297 289 287 288 288 294 293 296 321 324 323 327 331 331 334 337 337 336 337 338 339 343 342 347 346 345 344 345 350 344 344 347 348 351 348 348 349
288 289 298 305 302 298 298 295 290 284 286 290 296 290 297 309 329 327 328 329 327 333 337 337 338 338 339 339 342 344 343 347 345 343 343 346 348 345 347 351 348 349 349 349
290 291 301 302 303 303 298 295 300 292 295 292 295 298 303 306 309 325 322 326 329 335 333 337 339 339 340 340 340 344 343 344 346 346 342 344 351 344 345 347 349 348 348 350
293 287 296 300 302 303 298 302 293 293 286 286 293 295 296 300 304 322 326 327 332 336 335 337 336 340 341 342 341 344 345 344 347 347 345 343 346 351 348 346 352 349 345 349
295 290 292 297 294 294 297 297 296 296 294 290 287 293 303 310 307 316 324 328 332 333 336 338 339 338 334 343 343 342 346 345 346 345 348 343 343 350 349 347 343 352 350 356
295 289 286 291 299 301 298 296 297 293 291 294 293 296 311 313 317 314 323 327 329 332 333 334 336 335 334 333 344 342 347 346 347 347 347 347 343 346 349 346 346 352 349 352
293 288 283 287 291 296 294 297 297 298 294 291 291 295 312 314 313 318 323 326 329 329 329 330 332 334 333 333 344 345 345 347 349 349 347 347 346 342 345 346 344 349 355 356
297 286 284 282 287 292 291 294 296 295 291 293 295 298 307 310 312 317 320 325 328 328 328 328 331 330 333 337 343 345 345 349 350 350 349 347 346 347 344 344 343 348 352 352
292 284 287 290 292 293 292 293 294 293 295 291 294 298 304 310 315 316 319 323 325 328 330 332 334 334 336 340 341 345 347 348 351 351 350 349 348 348 349 346 346 341 353 352
294 286 289 288 293 293 291 293 295 295 296 295 296 301 308 313 315 314 315 318 318 320 323 324 329 335 338 341 342 343 346 348 351 351 351 351 351 350 349 350 349 346 343 351
289 289 285 281 290 290 286 291 293 295 297 297 293 302 308 310 313 313 313 314 316 318 321 320 323 327 330 337 339 334 336 340 349 350 352 352 351 351 350 352 351 352 348 346
289 287 288 282 285 277 288 296 299 298 300 302 303 306 310 311 313 314 315 313 315 317 318 320 321 325 331 337 339 337 337 334 341 348 350 352 353 351 352 351 352 352 354 351
295 291 285 281 282 286 290 297 297 293 295 302 301 303 304 306 310 308 312 314 314 316 317 318 322 325 328 328 334 341 344 344 344 350 349 352 352 353 353 351 351 353 353 354
294 293 288 286 281 279 291 299 302 300 289 302 302 301 301 304 299 301 309 312 313 315 316 316 319 324 326 326 328 332 335 339 337 344 354 354 353 353 353 354 353 355 355 353
286 288 284 284 283 288 295 300 302 286 290 300 301 302 300 298 301 305 309 311 313 315 316 316 318 319 323 325 323 323 327 327 331 334 337 357 355 353 355 355 356 355 355 355
286 283 282 285 284 282 296 298 292 296 299 300 301 301 300 301 303 305 307 309 312 313 315 314 315 317 322 324 320 318 320 323 326 329 332 353 357 355 356 356 357 356 355 354
287 287 283 285 287 295 295 293 297 299 298 298 298 299 300 300 301 303 305 307 310 313 313 314 314 316 319 321 320 316 319 323 324 326 331 349 357 356 355 356 356 356 356 355
293 293 286 287 291 292 293 294 296 297 296 297 298 299 300 299 301 301 304 306 308 311 312 313 313 314 316 318 320 317 320 323 324 325 329 353 356 356 356 358 358 358 357 355
291 290 288 287 291 291 294 294 295 296 297 298 299 299 298 299 299 301 303 305 308 309 313 313 313 314 316 317 317 316 318 322 322 324 328 340 354 353 357 357 358 358 359 356
293 288 285 284 290 291 291 295 296 295 295 296 296 296 298 300 298 300 301 305 309 309 311 312 313 316 315 315 314 314 315 319 320 321 325 324 333 343 355 354 350 318 325 321
Wind_Speed
6 2 6 8 9 11 15 13 10 10 14 8 15 16 20 20 14 12 10 5 14 12 7 14 19 18 14 16 14 12 12 12 8 3 3 1 4 4 2 4 6 6 5 5
6 9 7 11 14 12 16 14 14 13 10 9 15 16 16 15 7 14 15 13 9 17 15 8 19 20 17 18 14 11 15 12 9 5 3 3 3 2 4 5 5 6 6 6
10 11 17 14 12 14 13 10 10 11 17 9 14 7 5 5 4 7 11 13 8 13 21 15 17 20 18 20 15 12 16 13 9 8 3 2 1 0 3 4 4 5 7 6
9 13 15 12 15 13 8 9 10 11 8 5 5 5 11 14 10 11 9 6 7 14 20 18 15 19 20 19 17 13 15 14 9 12 6 5 4 4 3 6 4 5 7 7
8 10 12 13 11 13 11 10 8 6 8 6 17 3 8 9 12 18 19 20 22 27 28 23 23 20 20 19 19 15 16 15 13 9 10 6 5 4 4 3 7 5 5 7
9 11 6 8 13 11 5 8 9 6 2 4 12 3 3 13 21 18 23 27 27 30 29 25 23 19 19 19 19 18 17 18 13 11 8 9 9 6 5 5 6 6 4 4
8 11 10 11 8 10 4 3 5 4 5 7 9 8 11 22 17 19 26 27 25 19 29 26 24 21 20 23 21 19 19 18 16 14 11 8 9 8 6 6 8 7 4 3
3 9 4 6 8 6 7 6 6 6 4 8 9 6 12 12 19 19 22 27 19 22 28 28 27 24 22 23 22 22 21 19 18 17 13 9 8 6 5 4 5 8 7 7
7 8 18 15 18 6 8 7 11 5 9 8 7 9 11 15 7 22 18 14 18 20 21 26 27 24 23 22 24 23 22 20 19 18 14 11 7 8 7 8 6 6 7 5
8 6 6 15 14 10 3 6 3 4 4 7 7 10 6 10 19 17 19 18 10 4 10 6 7 18 23 23 21 22 23 23 20 18 16 13 13 7 7 7 7 7 6 5
13 7 11 10 5 12 16 8 5 2 4 9 4 9 6 20 12 17 21 19 21 12 16 14 5 5 11 17 22 22 22 22 20 19 17 16 14 9 7 7 8 7 5 6
9 3 6 15 18 16 14 16 2 2 8 3 2 12 17 21 21 19 21 20 20 28 18 11 8 4 9 12 19 24 22 22 21 20 18 18 15 13 13 9 7 7 7 7
8 5 6 11 7 6 8 18 22 6 5 7 3 7 10 20 25 29 19 7 13 12 9 6 12 7 13 14 21 21 21 22 22 20 19 17 17 17 14 14 7 9 7 7
2 3 3 6 14 13 16 22 21 18 6 8 10 13 11 15 21 25 29 28 3 11 9 10 2 14 22 19 21 22 22 21 21 20 20 19 19 18 17 15 13 7 10 8
4 3 6 11 14 16 20 18 21 19 16 8 10 11 6 9 11 18 17 17 21 16 12 7 5 9 4 12 20 21 21 21 22 21 20 20 18 17 15 16 14 16 8 13
2 1 5 7 13 16 19 20 18 20 18 15 12 4 4 12 17 19 20 20 17 17 16 16 10 11 6 5 6 8 4 20 21 22 21 19 17 17 17 15 15 15 17 8
1 4 1 3 9 14 12 12 16 19 18 16 11 10 9 10 13 14 16 18 16 16 16 17 18 11 5 5 3 6 10 15 15 19 20 20 19 18 18 16 15 15 17 17
6 4 4 0 5 5 6 16 13 13 19 20 18 17 11 13 10 14 14 16 19 13 16 16 14 18 13 13 9 10 13 16 16 15 17 19 18 19 17 17 17 16 14 15
7 3 2 5 4 12 12 6 12 10 13 16 14 14 15 15 13 14 16 14 16 16 10 11 14 15 14 14 9 5 6 15 23 14 17 17 19 18 17 19 18 15 15 14
9 5 4 1 3 4 7 5 3 8 4 14 14 13 14 15 7 7 12 13 17 15 7 11 12 14 11 13 14 9 5 7 13 15 9 16 18 18 19 19 19 16 15 15
5 2 0 3 5 2 14 17 17 3 6 21 6 7 10 7 4 7 10 12 13 12 11 10 9 9 9 10 10 7 8 9 11 15 15 10 16 19 19 18 15 16 15 14
2 3 2 4 3 3 17 6 7 8 10 14 13 11 9 11 12 9 11 10 13 10 11 9 10 10 7 9 11 13 12 12 13 13 15 12 13 13 12 17 15 15 14 14
2 2 2 2 4 7 8 8 11 10 11 9 11 10 8 12 12 13 9 13 10 10 11 6 9 10 7 8 8 12 13 14 15 14 15 15 11 14 14 15 15 12 14 12
4 2 2 5 2 9 8 9 10 12 15 18 17 17 7 9 11 11 11 12 11 8 9 7 8 9 7 7 7 7 11 12 12 15 17 13 11 11 11 11 11 12 12 12
2 2 1 5 8 9 3 10 11 15 13 14 16 17 14 12 13 10 12 11 12 9 7 8 6 8 7 6 6 7 9 11 11 13 15 14 3 9 9 11 11 12 13 14
6 7 5 6 4 3 10 8 10 15 16 13 16 18 17 14 17 13 13 7 13 9 6 8 7 6 6 7 7 9 11 11 9 10 10 11 7 7 4 6 5 5 8 15
Wind_Direction
223 236 209 233 246 256 274 281 278 269 244 189 195 147 168 171 148 147 130 328 188 191 193 167 163 160 147 152 159 146 145 159 149 154 147 183 169 167 125 161 169 176 176 127
254 229 233 229 238 240 256 269 281 289 282 183 137 166 166 174 144 154 169 183 258 187 197 197 165 162 155 161 158 155 156 160 157 163 160 171 170 190 158 165 181 172 156 142
218 235 217 240 254 256 246 242 275 276 305 318 92 87 152 187 182 158 195 157 223 250 189 190 177 165 158 164 163 157 160 163 155 171 162 205 151 98 115 167 171 180 152 147
236 240 259 236 233 256 263 266 268 274 318 277 53 226 203 182 173 190 159 109 227 265 227 182 179 170 169 167 167 154 160 168 167 171 184 168 175 165 176 162 169 168 162 149
255 239 259 251 255 220 257 285 288 299 271 335 300 29 233 160 169 189 153 142 231 247 218 195 183 174 173 165 171 165 159 169 177 169 182 184 182 177 170 167 157 173 176 161
291 299 283 255 265 273 246 274 298 319 334 299 269 181 143 177 199 196 181 190 198 214 190 194 188 174 169 169 171 173 164 176 177 180 175 188 190 198 171 169 170 179 165 166
269 255 269 287 305 281 270 325 329 323 312 248 242 279 235 202 219 195 184 193 197 171 183 188 184 185 174 173 172 177 174 176 182 188 189 189 196 188 190 169 166 164 165 176
314 319 194 323 252 239 245 209 176 231 231 254 246 254 269 202 201 199 194 197 190 197 183 184 185 184 180 174 174 177 182 179 182 186 195 198 200 191 188 183 164 171 180 194
8 304 347 333 339 279 249 240 223 261 267 286 274 284 261 269 207 192 187 190 201 192 190 183 186 186 183 178 180 179 180 185 185 188 189 192 201 195 188 196 189 178 180 182
352 315 345 341 329 324 306 224 258 230 236 277 287 293 249 254 252 158 162 161 138 115 127 113 34 202 184 183 179 179 180 185 186 187 193 194 198 194 177 188 205 186 193 177
18 35 314 351 322 345 337 298 268 249 210 244 282 280 247 3 296 185 177 162 143 116 242 169 80 2 342 202 178 181 179 184 186 189 188 194 198 198 184 188 204 199 186 147
10 284 315 298 296 304 303 310 28 358 294 224 151 266 26 21 1 353 181 173 169 174 169 149 130 53 295 306 203 184 177 183 187 186 188 191 194 198 203 198 196 193 205 166
353 355 337 325 299 59 3 342 333 255 275 263 181 262 13 13 13 10 19 81 137 137 141 130 124 155 260 266 246 190 184 184 185 183 188 189 192 195 201 205 202 199 187 199
59 326 298 269 302 317 308 319 323 327 293 258 262 301 357 14 12 20 9 11 123 104 90 35 280 181 226 248 262 200 188 180 182 185 185 190 194 196 198 201 205 203 200 190
70 306 306 308 307 312 304 299 304 309 301 299 304 328 341 50 38 25 17 15 40 34 46 6 314 198 263 302 267 214 186 183 181 184 189 193 192 195 192 197 195 204 201 206
78 293 358 302 312 292 290 295 288 294 294 298 312 317 17 52 53 39 18 7 35 28 30 19 40 108 125 346 326 39 270 187 179 186 190 191 188 192 195 195 196 197 209 197
313 134 139 282 335 322 295 288 293 297 291 303 306 21 37 48 53 51 21 2 6 19 20 11 4 17 29 82 26 50 11 346 214 184 188 189 189 189 195 192 195 200 204 210
242 239 139 246 23 274 254 330 297 313 34 25 41 28 18 93 75 45 30 359 354 14 11 9 356 346 14 6 39 23 356 321 323 214 186 188 187 192 191 195 197 200 200 206
27 353 287 146 209 271 291 345 358 6 28 34 21 15 7 342 98 57 13 357 342 350 12 4 352 345 14 7 16 18 42 314 266 220 185 187 188 188 189 196 200 199 202 203
12 360 135 272 207 270 7 294 297 326 141 8 15 7 4 3 17 11 347 346 337 335 355 10 359 353 360 7 357 1 359 297 342 346 219 183 184 189 191 193 196 197 202 210
324 3 197 249 230 225 346 353 316 255 356 316 360 18 6 7 351 324 338 336 325 328 340 359 355 357 347 359 354 347 336 346 331 327 321 204 188 189 192 190 190 195 200 204
299 321 1 330 253 229 14 11 0 336 315 343 1 4 4 336 326 332 330 321 323 328 334 348 345 334 345 1 357 346 351 338 336 330 312 263 188 191 187 188 188 192 196 203
190 150 224 247 277 33 24 345 1 343 312 320 327 326 335 316 314 310 307 314 315 335 331 338 338 322 345 11 1 339 334 339 336 328 314 281 187 187 185 186 189 189 193 199
127 102 224 358 19 2 344 6 351 337 322 317 314 308 311 307 315 310 302 302 308 315 306 332 324 315 343 0 354 329 327 331 341 334 322 265 193 179 185 184 189 191 196 203
89 45 224 273 278 340 36 334 331 327 309 307 310 306 308 303 294 293 292 291 297 308 313 309 306 317 334 342 352 338 332 333 354 350 339 330 207 183 187 190 187 197 204 203
166 187 179 226 105 234 274 304 334 328 314 310 301 293 291 291 285 285 282 264 285 293 309 307 303 308 3 346 336 339 338 342 353 1 340 338 339 2 229 199 203 52 230 203